TimeCDT,TemperatureF,Dew PointF,Humidity,Sea Level PressureIn,VisibilityMPH,Wind Direction,Wind SpeedMPH,Gust SpeedMPH,PrecipitationIn,Events,Conditions,WindDirDegrees,DateUTC
12:15 AM,55.4,41.0,58,30.12,10.0,NE,12.7,-,N/A,,Clear,40,2013-09-04 05:15:00
12:35 AM,55.4,39.2,54,30.12,10.0,NE,12.7,-,N/A,,Partly Cloudy,40,2013-09-04 05:35:00
12:55 AM,55.4,39.2,54,30.13,10.0,NE,11.5,-,N/A,,Partly Cloudy,50,2013-09-04 05:55:00
1:15 AM,53.6,39.2,58,30.14,10.0,NE,12.7,18.4,N/A,,Partly Cloudy,40,2013-09-04 06:15:00
1:35 AM,53.6,37.4,54,30.14,10.0,NE,13.8,20.7,N/A,,Partly Cloudy,40,2013-09-04 06:35:00
1:55 AM,51.8,35.6,54,30.15,10.0,NE,13.8,19.6,N/A,,Clear,40,2013-09-04 06:55:00
2:15 AM,50.0,35.6,58,30.15,10.0,NE,11.5,-,N/A,,Clear,40,2013-09-04 07:15:00
2:35 AM,50.0,35.6,58,30.15,10.0,NE,10.4,-,N/A,,Clear,40,2013-09-04 07:35:00
2:55 AM,50.0,33.8,54,30.15,10.0,NE,11.5,-,N/A,,Clear,40,2013-09-04 07:55:00
3:15 AM,48.2,33.8,58,30.15,10.0,NE,9.2,-,N/A,,Clear,40,2013-09-04 08:15:00
3:35 AM,48.2,32.0,54,30.15,10.0,NE,8.1,-,N/A,,Clear,40,2013-09-04 08:35:00
3:55 AM,48.2,32.0,54,30.16,10.0,NE,8.1,-,N/A,,Clear,40,2013-09-04 08:55:00
4:15 AM,46.4,32.0,57,30.16,10.0,NE,8.1,-,N/A,,Clear,40,2013-09-04 09:15:00
4:35 AM,46.4,32.0,57,30.16,10.0,NE,5.8,-,N/A,,Clear,40,2013-09-04 09:35:00
4:55 AM,46.4,32.0,57,30.16,10.0,East,4.6,-,N/A,,Clear,80,2013-09-04 09:55:00
5:15 AM,46.4,32.0,57,30.17,10.0,Calm,Calm,-,N/A,,Clear,0,2013-09-04 10:15:00
5:35 AM,44.6,28.4,53,30.17,10.0,NE,4.6,-,N/A,,Clear,40,2013-09-04 10:35:00
5:55 AM,42.8,28.4,57,30.16,10.0,North,4.6,-,N/A,,Clear,10,2013-09-04 10:55:00
6:15 AM,41.0,26.6,57,30.17,10.0,NNE,4.6,-,N/A,,Clear,20,2013-09-04 11:15:00
6:35 AM,41.0,26.6,57,30.18,10.0,NNE,4.6,-,N/A,,Clear,20,2013-09-04 11:35:00
6:55 AM,41.0,26.6,57,30.19,10.0,NNE,4.6,-,N/A,,Clear,20,2013-09-04 11:55:00
7:15 AM,42.8,32.0,66,30.19,10.0,NNE,5.8,-,N/A,,Clear,30,2013-09-04 12:15:00
7:35 AM,44.6,35.6,71,30.20,10.0,NNE,4.6,-,N/A,,Clear,30,2013-09-04 12:35:00
7:55 AM,46.4,37.4,71,30.20,10.0,NE,6.9,-,N/A,,Clear,50,2013-09-04 12:55:00
8:15 AM,48.2,39.2,71,30.20,10.0,ENE,6.9,-,N/A,,Clear,60,2013-09-04 13:15:00
8:35 AM,50.0,41.0,71,30.21,10.0,ENE,5.8,-,N/A,,Clear,70,2013-09-04 13:35:00
8:55 AM,50.0,41.0,71,30.22,10.0,ENE,6.9,-,N/A,,Clear,70,2013-09-04 13:55:00
9:15 AM,51.8,41.0,67,30.22,10.0,ENE,6.9,-,N/A,,Clear,70,2013-09-04 14:15:00
9:35 AM,55.4,44.6,67,30.22,10.0,ENE,6.9,-,N/A,,Clear,70,2013-09-04 14:35:00
9:55 AM,55.4,42.8,63,30.23,10.0,ENE,5.8,-,N/A,,Clear,60,2013-09-04 14:55:00
10:15 AM,57.2,46.4,67,30.24,10.0,East,8.1,-,N/A,,Clear,80,2013-09-04 15:15:00
10:35 AM,59.0,48.2,67,30.23,10.0,East,8.1,-,N/A,,Clear,80,2013-09-04 15:35:00
10:55 AM,59.0,44.6,59,30.24,10.0,ESE,4.6,-,N/A,,Clear,120,2013-09-04 15:55:00
11:15 AM,62.6,46.4,55,30.25,10.0,SE,6.9,-,N/A,,Clear,130,2013-09-04 16:15:00
11:35 AM,62.6,46.4,55,30.24,10.0,East,4.6,-,N/A,,Clear,100,2013-09-04 16:35:00
11:55 AM,62.6,46.4,55,30.24,10.0,Calm,Calm,-,N/A,,Clear,0,2013-09-04 16:55:00
12:15 PM,62.6,46.4,55,30.24,10.0,NE,5.8,-,N/A,,Clear,50,2013-09-04 17:15:00
12:35 PM,62.6,46.4,55,30.23,10.0,East,5.8,-,N/A,,Clear,80,2013-09-04 17:35:00
12:55 PM,64.4,46.4,52,30.23,10.0,ESE,8.1,-,N/A,,Clear,120,2013-09-04 17:55:00
1:15 PM,64.4,48.2,56,30.22,10.0,East,3.5,-,N/A,,Clear,90,2013-09-04 18:15:00
1:35 PM,64.4,46.4,52,30.22,10.0,ESE,4.6,-,N/A,,Clear,120,2013-09-04 18:35:00
1:55 PM,64.4,48.2,56,30.22,10.0,East,6.9,-,N/A,,Clear,80,2013-09-04 18:55:00
2:15 PM,64.4,46.4,52,30.23,10.0,East,4.6,-,N/A,,Clear,90,2013-09-04 19:15:00
2:35 PM,64.4,48.2,56,30.22,10.0,ESE,5.8,-,N/A,,Clear,110,2013-09-04 19:35:00
2:55 PM,64.4,48.2,56,30.22,10.0,NNE,6.9,-,N/A,,Clear,30,2013-09-04 19:55:00
3:15 PM,64.4,48.2,56,30.22,10.0,NE,4.6,-,N/A,,Clear,50,2013-09-04 20:15:00
3:35 PM,64.4,48.2,56,30.21,10.0,Calm,Calm,-,N/A,,Clear,0,2013-09-04 20:35:00
3:55 PM,66.2,50.0,56,30.21,10.0,Calm,Calm,-,N/A,,Clear,0,2013-09-04 20:55:00
4:15 PM,66.2,48.2,52,30.20,10.0,SE,4.6,-,N/A,,Clear,140,2013-09-04 21:15:00
4:35 PM,64.4,48.2,56,30.21,10.0,ENE,3.5,-,N/A,,Clear,70,2013-09-04 21:35:00
4:55 PM,64.4,48.2,56,30.21,10.0,ENE,3.5,-,N/A,,Clear,60,2013-09-04 21:55:00
5:15 PM,64.4,48.2,56,30.20,10.0,East,4.6,-,N/A,,Clear,90,2013-09-04 22:15:00
5:35 PM,64.4,48.2,56,30.20,10.0,East,4.6,-,N/A,,Clear,80,2013-09-04 22:35:00
5:55 PM,64.4,48.2,56,30.20,10.0,East,3.5,-,N/A,,Clear,80,2013-09-04 22:55:00
6:15 PM,66.2,50.0,56,30.19,10.0,East,5.8,-,N/A,,Clear,80,2013-09-04 23:15:00
6:35 PM,66.2,50.0,56,30.19,10.0,East,6.9,-,N/A,,Partly Cloudy,90,2013-09-04 23:35:00
6:55 PM,64.4,48.2,56,30.19,10.0,East,3.5,-,N/A,,Clear,90,2013-09-04 23:55:00
7:15 PM,64.4,48.2,56,30.19,10.0,ESE,5.8,-,N/A,,Clear,110,2013-09-05 00:15:00
7:35 PM,62.6,46.4,55,30.19,10.0,ESE,6.9,-,N/A,,Clear,120,2013-09-05 00:35:00
7:55 PM,59.0,44.6,59,30.19,10.0,East,6.9,-,N/A,,Clear,90,2013-09-05 00:55:00
8:15 PM,59.0,42.8,55,30.19,10.0,East,5.8,-,N/A,,Clear,100,2013-09-05 01:15:00
8:35 PM,57.2,42.8,59,30.19,10.0,ESE,5.8,-,N/A,,Clear,110,2013-09-05 01:35:00
8:55 PM,57.2,41.0,55,30.20,10.0,ESE,4.6,-,N/A,,Clear,110,2013-09-05 01:55:00
9:15 PM,55.4,39.2,54,30.19,10.0,ESE,5.8,-,N/A,,Clear,120,2013-09-05 02:15:00
9:35 PM,53.6,37.4,54,30.19,10.0,ESE,5.8,-,N/A,,Clear,120,2013-09-05 02:35:00
9:55 PM,51.8,37.4,58,30.19,10.0,ESE,5.8,-,N/A,,Clear,120,2013-09-05 02:55:00
10:15 PM,50.0,35.6,58,30.19,10.0,ESE,6.9,-,N/A,,Clear,110,2013-09-05 03:15:00
10:35 PM,50.0,35.6,58,30.20,10.0,ESE,4.6,-,N/A,,Clear,110,2013-09-05 03:35:00
10:55 PM,48.2,32.0,54,30.20,10.0,East,5.8,-,N/A,,Clear,90,2013-09-05 03:55:00
11:15 PM,48.2,33.8,58,30.20,10.0,ESE,4.6,-,N/A,,Clear,110,2013-09-05 04:15:00
11:35 PM,46.4,32.0,57,30.20,10.0,SE,3.5,-,N/A,,Clear,130,2013-09-05 04:35:00
11:55 PM,46.4,32.0,57,30.20,10.0,SE,4.6,-,N/A,,Clear,140,2013-09-05 04:55:00